Hourly Data Report for October 14, 2015

All times are specified in Local Standard Time (LST). Add 1 hour to adjust for Daylight Saving Time where and when it is observed.

PETAWAWA AWOS 2
ONTARIO

45°57'00.000" N
77°19'00.000" W
130.10 m
6106396
71625
YWA

Download Data

Hourly Data (October 2015)
Hourly Data Report for October 14, 2015
Temp Definition
°C
Dew Point Temp Definition
°C
Rel Hum Definition
%
Wind Dir Definition
10's deg

Wind Spd Definition
km/h
Visibility Definition
km
Stn Press Definition
kPa
Hmdx Definition


Wind Chill Definition


Weather Definition


TIME
00:00 9.3 6.2 81 31 22 14.5 98.27     Drizzle
01:00 8.4 4.8 78 31 24 14.5 98.38     Drizzle
02:00 7.2 4.4 82 32 19 14.5 98.45     Drizzle
03:00 6.8 3.8 81 30 17 14.5 98.51     Drizzle
04:00 5.4 3.5 88 31 19 14.5 98.65     Drizzle
05:00 4.6 1.0 77 32 17 14.5 98.75     LegendNANA
06:00 4.3 2.3 87 29 17 14.5 98.86     Drizzle
07:00 4.4 1.0 78 30 15 14.5 98.96     LegendNANA
08:00 4.7 0.7 75 30 15 14.5 99.04     LegendNANA
09:00 5.1 1.0 75 30 19 14.5 99.11     LegendNANA
10:00 6.1 0.3 66 30 19 14.5 99.18     LegendNANA
11:00 7.2 -0.6 58 30 19 14.5 99.21     LegendNANA
12:00 7.0 -1.1 56 32 19 14.5 99.22     LegendNANA
13:00 9.6 -1.0 48 29 13 14.5 99.20     LegendNANA
14:00 10.1 -0.9 46 28 17 14.5 99.21     LegendNANA
15:00 9.9 -0.7 48 31 17 14.5 99.24     LegendNANA
16:00 10.0 -1.4 45 28 17 14.5 99.28     LegendNANA
17:00 8.8 -1.4 49 30 13 14.5 99.33     LegendNANA
18:00 6.9 -0.9 58 29 6 14.5 99.39     LegendNANA
19:00 5.5 -1.1 62 27 6 14.5 99.43     LegendNANA
20:00 1.7 -0.9 83 27 6 14.5 99.46     LegendNANA
21:00 0.9 -1.2 86 25 6 14.5 99.48     LegendNANA
22:00 1.7 -0.9 83 25 4 14.5 99.49     LegendNANA
23:00 2.7 0.2 84 32 4 14.5 99.43     LegendNANA

Notes on Data Quality.

Legend

  • E = Estimated
  • M = Missing
  • NA = Not Available
  • ‡ = Partner data that is not subject to review by the National Climate Archives
Date modified: